Meridian, MS

9:57 AM CDT on June 25, 2017 (GMT -0500)
Key

Weather History for KMEI - October, 2013

Change the Weather History Date:

Wednesday, October 9, 2013

  Actual Average Record
Temperature  
Mean Temperature 65 °F 66 °F  
Max Temperature 73 °F 79 °F 93 °F (1990)
Min Temperature 57 °F 54 °F 37 °F (1978)
Degree Days  
Heating Degree Days 0 2  
Month to date heating degree days 4 14  
Since 1 July heating degree days 4 21  
Cooling Degree Days 0 4  
Month to date cooling degree days 56 42  
Year to date cooling degree days 1976 1965  
Growing Degree Days 15 (Base 50)    
Moisture  
Dew Point 62 °F    
Average Humidity 89    
Maximum Humidity 100    
Minimum Humidity 78    
Precipitation  
Precipitation 0.00 in 0.11 in 3.18 in (1999)
Month to date precipitation 1.35 1.03  
Year to date precipitation 53.60 43.42  
Sea Level Pressure  
Sea Level Pressure 30.09 in    
Wind  
Wind Speed 3 mph (East)    
Max Wind Speed 9 mph    
Max Gust Speed 14 mph    
Visibility 10 miles    
Events      
T = Trace of Precipitation, MM = Missing Value Source: NWS Daily Summary

Daily Weather History Graph

Daily Weather History Graph

Search for Another Location

Airport or City:

Trip Planner

Search our weather history database for the weather conditions in past years. The results will help you decide how hot, cold, wet, or windy it might be!

Date:

Astronomy

Oct. 09, 2013 Rise Set
Actual Time 6:54 AM CDT 6:29 PM CDT
Civil Twilight 6:30 AM CDT 6:53 PM CDT
Nautical Twilight 6:01 AM CDT 7:22 PM CDT
Astronomical Twilight 5:33 AM CDT 7:50 PM CDT
Moon 11:36 AM CDT (10/9) 10:16 PM CDT (10/9)
Length of Visible Light 12h 23m
Length of Day
11h 34m
Waxing Crescent, 25% of the Moon is Illuminated
Oct 9
Waxing Crescent
Oct 11
First Quarter
Oct 18
Full
Oct 26
Last Quarter
Nov 3
New

Hourly Weather History & Observations

Time (CDT) Temp. Dew Point Humidity Pressure Visibility Wind Dir Wind Speed Gust Speed Precip Events Conditions
12:58 AM 59.0 °F 57.9 °F 96% 30.04 in 10.0 mi Calm Calm - N/A   Scattered Clouds
1:58 AM 59.0 °F 57.0 °F 93% 30.04 in 10.0 mi Calm Calm - N/A   Mostly Cloudy
2:58 AM 57.9 °F 57.0 °F 97% 30.04 in 10.0 mi Calm Calm - N/A   Mostly Cloudy
3:58 AM 57.9 °F 55.9 °F 93% 30.04 in 10.0 mi Calm Calm - N/A   Scattered Clouds
4:58 AM 57.0 °F 55.9 °F 96% 30.05 in 10.0 mi Calm Calm - N/A   Clear
5:56 AM 59.0 °F 57.2 °F 94% 30.07 in 10.0 mi Calm Calm - N/A   Scattered Clouds
5:58 AM 59.0 °F 57.9 °F 96% 30.06 in 10.0 mi Calm Calm - N/A   Mostly Cloudy
6:10 AM 60.8 °F 59.0 °F 94% 30.07 in 10.0 mi Calm Calm - N/A   Mostly Cloudy
6:38 AM 62.6 °F 60.8 °F 94% 30.08 in 10.0 mi ENE 4.6 mph - N/A   Overcast
6:58 AM 63.0 °F 61.0 °F 93% 30.08 in 10.0 mi ENE 5.8 mph - N/A   Overcast
7:58 AM 64.0 °F 61.0 °F 90% 30.10 in 10.0 mi ENE 4.6 mph - N/A   Overcast
8:40 AM 64.4 °F 60.8 °F 88% 30.12 in 10.0 mi ESE 6.9 mph - N/A   Overcast
8:58 AM 64.9 °F 60.1 °F 84% 30.12 in 10.0 mi ESE 6.9 mph - N/A   Overcast
9:58 AM 66.0 °F 61.0 °F 84% 30.14 in 10.0 mi East 3.5 mph - N/A   Overcast
10:58 AM 66.0 °F 61.0 °F 84% 30.15 in 10.0 mi East 5.8 mph - N/A   Overcast
11:58 AM 68.0 °F 62.1 °F 81% 30.15 in 10.0 mi Variable 4.6 mph - N/A   Overcast
12:58 PM 69.1 °F 62.1 °F 78% 30.13 in 10.0 mi NNE 4.6 mph - N/A   Overcast
1:58 PM 70.0 °F 63.0 °F 78% 30.11 in 10.0 mi East 3.5 mph - N/A   Overcast
2:28 PM 71.6 °F 62.6 °F 73% 30.10 in 10.0 mi Calm Calm - N/A   Overcast
2:58 PM 72.0 °F 64.0 °F 76% 30.10 in 10.0 mi ENE 5.8 mph - N/A   Overcast
3:58 PM 72.0 °F 64.0 °F 76% 30.09 in 10.0 mi East 3.5 mph - N/A   Overcast
4:58 PM 72.0 °F 64.0 °F 76% 30.08 in 10.0 mi ESE 6.9 mph - N/A   Overcast
5:58 PM 71.1 °F 64.0 °F 78% 30.08 in 10.0 mi East 3.5 mph - N/A   Overcast
6:58 PM 70.0 °F 64.0 °F 81% 30.08 in 10.0 mi ESE 3.5 mph - N/A   Overcast
7:58 PM 69.1 °F 64.9 °F 87% 30.09 in 10.0 mi Calm Calm - N/A   Overcast
8:56 PM 68.0 °F 64.4 °F 88% 30.10 in 10.0 mi Calm Calm - N/A   Mostly Cloudy
8:58 PM 68.0 °F 64.9 °F 90% 30.10 in 10.0 mi Calm Calm - N/A   Mostly Cloudy
9:21 PM 66.2 °F 64.4 °F 94% 30.11 in 9.0 mi Calm Calm - N/A   Mostly Cloudy
9:58 PM 66.0 °F 64.0 °F 93% 30.11 in 10.0 mi Calm Calm - N/A   Overcast
10:33 PM 64.4 °F 62.6 °F 94% 30.11 in 8.0 mi SSW 3.5 mph - N/A   Scattered Clouds
10:44 PM 64.4 °F 64.4 °F 100% 30.11 in 8.0 mi Calm Calm - N/A   Mostly Cloudy
10:58 PM 66.0 °F 64.0 °F 93% 30.10 in 9.0 mi Calm Calm - N/A   Mostly Cloudy
11:12 PM 64.4 °F 64.4 °F 100% 30.10 in 9.0 mi Calm Calm - N/A   Scattered Clouds
11:56 PM 62.6 °F 62.6 °F 100% 30.11 in 8.0 mi Calm Calm - N/A   Scattered Clouds
11:58 PM 62.1 °F 62.1 °F 100% 30.10 in 7.0 mi Calm Calm - N/A   Mostly Cloudy